Zurück zum Katalog

STARLINK-33693

AktivKommunikationVLEO
NORAD 63409·PAYLOAD·🇺🇸 United States

Gestartet Mar 31, 2025 von Cape Canaveral Space Force Station

Loading…

Nächste Überflüge (nächste 24 Stunden)

TLE

AktuellSource: CelesTrak SupGP

Epoche: Sep 14, 2026, 21:12 UTC

1 63409C 25065L   26257.88381944 -.00046118  00000+0 -16709-2 0  2570
2 63409  43.0020 118.6470 0001569 271.7866 110.7310 15.27591468    10

Verfolge STARLINK-33693 in Echtzeit mit AllMySat

Download on the App Store